Weather Service Report


210 
ASUS44 KBMX 260510
RWRAL 
             
ALABAMA REGIONAL WEATHER ROUNDUP
NATIONAL WEATHER SERVICE BIRMINGHAM AL
1200 AM CDT SUN MAR 26 2017

NOTE: "FAIR" INDICATES FEW OR NO CLOUDS BELOW 12,000 FEET
WITH NO SIGNIFICANT WEATHER AND/OR OBSTRUCTIONS TO VISIBILITY.

THE REMARK "TC" DENOTES TEMPERATURE IN DEGREES CELSIUS.

ALZ001>011-014-016>018-020-260600-
NORTH ALABAMA
  
CITY           SKY/WX    TMP DP  RH WIND       PRES   REMARKS
MUSCLE SHOALS  CLOUDY    59  56  89 SE3       30.00F                  
HUNTSVILLE     CLOUDY    58  58 100 E8        30.00F                  
DECATUR        MOCLDY    58  57  97 SE5       30.01F                  
HALEYVILLE     LGT RAIN  57  56  96 SE8       30.02F                  
GADSDEN        CLOUDY    59  58  96 SE6       30.06F                  
$$
 
ALZ012-013-022-023-030>036-040>044-260600-
WEST CENTRAL ALABAMA
  
CITY           SKY/WX    TMP DP  RH WIND       PRES   REMARKS
TUSCALOOSA     MOCLDY    59  57  93 SE5       30.03S                  
$$
 
ALZ015-024>027-033>036-040>044-260600-
CENTRAL ALABAMA
  
CITY           SKY/WX    TMP DP  RH WIND       PRES   REMARKS
BIRMINGHAM     MOCLDY    59  57  93 VRB5      30.06F                  
MONTGOMERY     MOCLDY    62  57  83 SE12      30.06F                  
SHELBY CO ARPT CLOUDY    59  59 100 SE6       30.05F                  
MAXWELL AFB    MOCLDY    61  60  96 SE9       30.05S                  
GREENVILLE     FAIR      60  57  89 SE3       30.05F                  
$$
 
ALZ019-021-028-029-037-038-045>048-260600-
EAST CENTRAL ALABAMA
  
CITY           SKY/WX    TMP DP  RH WIND       PRES   REMARKS
ANNISTON       CLOUDY    60  58  92 VRB3      30.06F                  
ALEXANDER CITY LGT RAIN  58  58  98 SE8       30.07F                  
AUBURN         LGT RAIN  59  58  96 SE5       30.13F                  
$$
 
ALZ051>064-260600-
SOUTHWEST ALABAMA
  
CITY           SKY/WX    TMP DP  RH WIND       PRES   REMARKS
MOBILE         CLEAR     61  59  93 SE7       30.04F                  
BROOKLEY FIELD CLEAR     65  63  93 SE8       30.05F                  
EVERGREEN      MOCLDY    60  58  92 SE3       30.07S                  
$$

ALZ049-050-065>069-260600-
SOUTHEAST ALABAMA
  
CITY           SKY/WX    TMP DP  RH WIND       PRES   REMARKS
DOTHAN         LGT RAIN  65  64  97 W7        30.16S                  
OZARK          RAIN      63  62  95 CALM      30.12F                  
TROY           LGT RAIN  61  60  97 SE8       30.09F                  
EUFAULA        CLOUDY    62  60  93 CALM      30.13S                  
$$
  

Return to Home page


Western Regional Climate Center, wrcc@dri.edu